カタログに戻る

SL-16 DEB

運用中LEO
NORAD 39873·DEBRIS·🇷🇺 Russia

打ち上げ Mar 26, 1993 から Baikonur Cosmodrome

Loading…

次のパス (今後24時間)

TLE

最新Source: Space-Track

元期: Sep 14, 2026, 14:42 UTC

1 39873U 93016AX  26257.61318835  .00002378  00000-0  65994-3 0  9992
2 39873  70.3911 331.7105 0079898  24.0338 336.4492 14.45812560638356

AllMySatでSL-16 DEBをリアルタイム追跡

Download on the App Store